West Memphis, AR

4:18 AM CDT on April 24, 2018 (GMT -0500)
West Memphis Municipal

Weather History for KAWM - November, 2013

Change the Weather History Date:

Tuesday, November 5, 2013

  Actual Average Record
Temperature  
Mean Temperature 63 °F -  
Max Temperature 72 °F 62 °F 82 °F (2005)
Min Temperature 54 °F 41 °F 20 °F (1991)
Degree Days  
Heating Degree Days 2    
Growing Degree Days 13 (Base 50)    
Moisture  
Dew Point 49 °F    
Average Humidity 63    
Maximum Humidity 75    
Minimum Humidity 48    
Precipitation  
Precipitation 0.00 in - - ()
Sea Level Pressure  
Sea Level Pressure 30.19 in    
Wind  
Wind Speed 10 mph (SSE)    
Max Wind Speed 16 mph    
Max Gust Speed 25 mph    
Visibility 10 miles    
Events      
Averages and records for this station are not official NWS values.
T = Trace of Precipitation, MM = Missing Value Source: NWS Daily Summary

Daily Weather History Graph

Daily Weather History Graph

Search for Another Location

Airport or City:

Astronomy

Nov. 05, 2013 Rise Set
Actual Time 6:26 AM CST 5:02 PM CST
Civil Twilight 5:59 AM CST 5:28 PM CST
Nautical Twilight 5:29 AM CST 5:58 PM CST
Astronomical Twilight 4:59 AM CST 6:28 PM CST
Moon 8:38 AM CST (11/5) 7:07 PM CST (11/5)
Length of Visible Light 11h 29m
Length of Day
10h 36m
Waxing Crescent, 7% of the Moon is Illuminated
Nov 5
Waxing Crescent
Nov 9
First Quarter
Nov 17
Full
Nov 25
Last Quarter
Dec 2
New

Hourly Weather History & Observations

Time (CST) Temp. Dew Point Humidity Pressure Visibility Wind Dir Wind Speed Gust Speed Precip Events Conditions
12:53 AM 54.0 °F 46.0 °F 75% 30.24 in 10.0 mi South 4.6 mph - N/A   Clear
1:53 AM 55.9 °F 46.0 °F 69% 30.22 in 10.0 mi SSE 6.9 mph - N/A   Scattered Clouds
2:53 AM 55.9 °F 46.0 °F 69% 30.20 in 10.0 mi SE 9.2 mph - N/A   Clear
3:53 AM 57.0 °F 46.0 °F 67% 30.22 in 10.0 mi SSE 11.5 mph - N/A   Mostly Cloudy
4:53 AM 57.0 °F 46.9 °F 69% 30.22 in 10.0 mi SE 10.4 mph - N/A   Mostly Cloudy
5:53 AM 57.0 °F 46.9 °F 69% 30.24 in 10.0 mi SE 8.1 mph - N/A   Overcast
6:53 AM 55.9 °F 46.9 °F 72% 30.26 in 10.0 mi SE 8.1 mph - N/A   Mostly Cloudy
7:53 AM 57.0 °F 46.9 °F 69% 30.27 in 10.0 mi SE 10.4 mph - N/A   Mostly Cloudy
8:53 AM 59.0 °F 46.0 °F 62% 30.27 in 10.0 mi SSE 13.8 mph - N/A   Mostly Cloudy
9:53 AM 61.0 °F 46.9 °F 60% 30.26 in 10.0 mi SE 12.7 mph - N/A   Overcast
10:53 AM 62.1 °F 48.0 °F 60% 30.25 in 10.0 mi SSE 11.5 mph - N/A   Overcast
11:53 AM 64.0 °F 48.9 °F 58% 30.21 in 10.0 mi SE 9.2 mph - N/A   Overcast
12:53 PM 69.1 °F 51.1 °F 53% 30.18 in 10.0 mi SSE 12.7 mph - N/A   Mostly Cloudy
1:53 PM 72.0 °F 52.0 °F 49% 30.15 in 10.0 mi SSE 13.8 mph 23.0 mph N/A   Clear
2:53 PM 72.0 °F 51.1 °F 48% 30.13 in 10.0 mi South 15.0 mph - N/A   Clear
3:53 PM 69.1 °F 51.1 °F 53% 30.14 in 10.0 mi SSE 12.7 mph - N/A   Overcast
4:53 PM 66.9 °F 52.0 °F 59% 30.13 in 10.0 mi SE 8.1 mph - N/A   Mostly Cloudy
5:53 PM 66.0 °F 52.0 °F 60% 30.13 in 10.0 mi SE 10.4 mph - N/A   Overcast
6:53 PM 64.0 °F 52.0 °F 65% 30.13 in 10.0 mi SE 12.7 mph - N/A   Clear
7:53 PM 63.0 °F 52.0 °F 67% 30.13 in 10.0 mi SSE 12.7 mph - N/A   Clear
8:53 PM 63.0 °F 51.1 °F 65% 30.14 in 10.0 mi SSE 15.0 mph - N/A   Mostly Cloudy
9:53 PM 62.1 °F 51.1 °F 67% 30.15 in 10.0 mi SSE 12.7 mph - N/A   Mostly Cloudy
10:53 PM 62.1 °F 50.0 °F 65% 30.13 in 10.0 mi SSE 16.1 mph 25.3 mph N/A   Overcast
11:53 PM 61.0 °F 50.0 °F 67% 30.12 in 10.0 mi South 15.0 mph - N/A   Clear